Location: Beaurecueil
(43.5122°N, 5.5450°E)
Time: 01:24:39
(UTC+00:00)

Meteor 1-24 Rocket - Pass Details

Date: 18 September 2020
Orbit: 790 x 927 km, 81.2° (Epoch: 26 October)

Event Time Altitude Azimuth Distance (km) Brightness Sun altitude
Rises 20:49:40 0° 345° (NNW) 3,354 7.6 -32.3°
Reaches altitude 10° 20:52:04 10° 341° (NNW) 2,435 6.7 -32.6°
Enters shadow 20:56:33 49° 298° (WNW) 1,077 4.4 -33.2°
